Regional Weather Roundup
Issued by NWS

Home | Current Version | Previous Version | Text Only | Print | Product List | Glossary Off
Versions: 1 2 3 4 5 6 7 8 9 10 11 12 13 14 15 16 17 18 19 20 21 22 23 24 25 26 27 28 29 30 31 32 33 34 35 36 37 38 39 40 41 42 43 44 45 46 47 48 49 50

000
ASUS43 KDMX 020404
RWRIA

WEATHER ROUNDUP FOR IOWA
NATIONAL WEATHER SERVICE DES MOINES IA
  ISSUED BY NWS QUAD CITIES IA IL
1000 PM CST SUN MAR 01 2015

NOTE: "FAIR" INDICATES FEW OR NO CLOUDS BELOW 12,000 FEET WITH NO
SIGNIFICANT WEATHER AND/OR OBSTRUCTIONS TO VISIBILITY.

* - THESE STATIONS ARE NOT NWS STATIONS...THUS NOT UNDER NWS
QUALITY CONTROL.  THEY ALSO DO NOT REPORT WEATHER SUCH
AS PRECIPITATION OR FOG.

IAZ001>003-012>014-020>022-031>034-043>046-020500-
   NORTHWEST IOWA

CITY           SKY/WX    TMP DP  RH WIND       PRES   REMARKS
CARROLL *      PTCLDY    18  12  79 NW8       30.42R WCI   7
CHEROKEE *     CLEAR     20  14  76 N5        30.43R WCI  14
DENNISON *     PTCLDY    19  14  79 VRB3      30.40R
LE MARS *      CLEAR     18  12  79 CALM      30.45R
ORANGE CITY *  CLEAR     23  16  74 N8        30.42R WCI  14
SHELDON *      CLEAR     16  12  86 NW8       30.40R WCI   5
SIOUX CITY     CLEAR     23  14  68 N7        30.45R WCI  15
SPENCER        CLEAR     16  11  80 NW7       30.40R WCI   6
STORM LAKE *   CLEAR     18  12  79 NW10      30.40S WCI   6
$$

IAZ055>058-069>071-079>083-090>094-020500-
   SOUTHWEST IOWA

CITY           SKY/WX    TMP DP  RH WIND       PRES   REMARKS
ATLANTIC *     PTCLDY    19  18  93 CALM      30.43R
AUDUBON *      CLEAR     14  10  85 CALM      30.43R
CLARINDA *     MOCLDY    21  18  86 CALM      30.46R
COUNCIL BLFS * CLEAR     27  19  74 SE5       30.42R WCI  21
CRESTON *      MOCLDY    21  16  79 S5        30.42S WCI  15
HARLAN *       PTCLDY    18  18 100 CALM      30.46R
LAMONI         CLOUDY    28  17  63 CALM      30.43R
RED OAK *      MOCLDY    23  18  80 SW5       30.44R WCI  17
SHENANDOAH *   PTCLDY    23  18  80 CALM      30.45R
$$

IAZ047>049-059>061-072>074-084-020500-
   CENTRAL IOWA

CITY           SKY/WX    TMP DP  RH WIND       PRES   REMARKS
AMES           CLEAR     17  11  77 W9        30.42R WCI   6
ANKENY *       CLEAR     23  14  68 SW6       30.43R WCI  16
BOONE *        CLEAR     21  16  79 SW7       30.40R WCI  13
CHARITON *     CLOUDY    23  18  80 S5        30.43R WCI  17
DES MOINES     PTCLDY    24  14  65 SW6       30.43R WCI  17
GRINNELL *     PTCLDY    19  13  79 SW8       30.41R WCI   9
KNOXVILLE *    PTCLDY    23  16  74 SW6       30.42R WCI  16
MARSHALLTOWN   PTCLDY    16  10  77 SW7       30.39R WCI   6
NEWTON *       PTCLDY    21  14  73 SW6       30.42R WCI  14
PELLA *        FAIR      23  18  82 SW5       30.45R WCI  17
PERRY *          N/A     17  14  88 SW8       30.42R WCI   7
$$

IAZ004>006-015-016-023>025-035-036-020500-
   NORTH CENTRAL IOWA

CITY           SKY/WX    TMP DP  RH WIND       PRES   REMARKS
ALGONA *       CLEAR     18  18 100 W9        30.40R WCI   6
CLARION *      CLEAR     19  14  79 W12       30.39R WCI   7
ESTHERVILLE    CLEAR     17  12  80 NW13      30.39R WCI   4
FORT DODGE *   CLEAR     19  12  73 CALM      30.41R
MASON CITY     CLEAR     15   8  73 W9        30.38R WCI   3
FOREST CITY *  FAIR      19  12  73 W9        30.37R WCI   9
WEBSTER CITY * CLEAR     21  21 100 W12       30.39R WCI   9
IOWA FALLS *   FAIR      10   6  87 W9        30.40R WCI  -4
$$

IAZ007>011-017>019-026>030-037>042-050>054-066-020500-
   NORTHEAST IOWA

CITY           SKY/WX    TMP DP  RH WIND       PRES   REMARKS
CEDAR RAPIDS   MOCLDY    14  10  84 W8        30.39R WCI   3
CHARLES CITY * CLEAR     18  10  73 W9        30.36R WCI   6
CLINTON *      PTCLDY     7   1  78 W9        30.41S WCI  -7
DECORAH *      CLEAR     16   9  73 W6        30.32R WCI   7
DUBUQUE        CLEAR      9   4  80 SW7       30.34S WCI  -2
MONTICELLO *   PTCLDY     9   7  92 CALM      30.38R
OELWEIN *      PTCLDY    12   9  85 W9        30.36R WCI   0
WATERLOO       CLEAR     16  10  77 W8        30.38R WCI   5
$$

IAZ064-065-067-068-078-020500-
   EAST CENTRAL IOWA

CITY           SKY/WX    TMP DP  RH WIND       PRES   REMARKS
DAVENPORT      PTCLDY    11   5  77 W6        30.41R WCI   1
IOWA CITY      MOCLDY     8   5  87 W3        30.43R
MT. PLEASANT * MOCLDY    19  14  82 SW5       30.45R WCI  12
MUSCATINE *    MOCLDY    14   9  79 S3        30.44S
QUAD CITIES    PTCLDY    15   7  70 W5        30.41R WCI   8
$$

IAZ062-063-075>077-085>089-095>099-020500-
   SOUTHEAST IOWA

CITY           SKY/WX    TMP DP  RH WIND       PRES   REMARKS
BURLINGTON     MOCLDY    21  16  81 NW5       30.44R WCI  15
FAIRFIELD *    MOCLDY    19  14  79 SW3       30.44R
FORT MADISON * CLOUDY    21  16  79 W3        30.46R
KEOKUK *       CLOUDY    23  19  86 W5        30.46R WCI  17
OSKALOOSA *    FAIR      17  13  84 SW7       30.44R WCI   7
CENTERVILLE *  FAIR      25  19  80 CALM      30.45R
OTTUMWA        MOCLDY    16  11  80 SW6       30.44R WCI   7
WASHINGTON *   MOCLDY    18  18 100 W6        30.43R WCI   9
$$

ABBREVIATIONS USED IN REMARKS
   TC - TEMPERATURES IN CELSIUS
  WCI - WIND CHILL INDEX
   HX - HEAT INDEX
  VSB - VISIBILITY
$$


USA.gov is the U.S. government's official web portal to all federal, state and local government web resources and services.